Overview Statistics Trail Chart Weather Telemetry Raw packets
 

This is the latest recevied weather packets stored in our database for station/object KK6MIG-13. If no packets are shown the sender has not sent any weather packets the latest 10 day(s).

<< 528 529 530 531 532 533 534 >>
Time Temp. Humidity Pressure Rain* Wind** Luminosity Snow
1787782831 16.67° C 7% 1013.8 hPa 0 mm - 793 W/m² -
1787782770 16.67° C 10% 1013.8 hPa 0 mm - 798 W/m² -
1787782723 16.67° C 11% 1013.8 hPa 0 mm - 795 W/m² -
1787782655 16.67° C 9% 1013.8 hPa 0 mm - 796 W/m² -
1787782530 16.67° C 14% 1013.9 hPa 0 mm - 800 W/m² -
1787782479 16.67° C 14% 1013.9 hPa 0 mm - 807 W/m² -
1787782474 16.67° C 16% 1013.8 hPa 0 mm - 802 W/m² -
1787782350 16.67° C 12% 1013.9 hPa 0 mm - 803 W/m² -
1787782290 16.67° C 14% 1013.9 hPa 0 mm - 810 W/m² -
1787782230 16.67° C 16% 1013.9 hPa 0 mm - 798 W/m² -
1787782170 16.67° C 14% 1014 hPa 0 mm - 807 W/m² -
1787782110 16.67° C 10% 1014 hPa 0 mm - 807 W/m² -
1787782050 16.67° C 11% 1014 hPa 0 mm - 810 W/m² -
1787781987 16.11° C 11% 1014 hPa 0 mm - 816 W/m² -
1787781926 16.11° C 11% 1014 hPa 0 mm - 816 W/m² -
1787781866 16.11° C 13% 1014 hPa 0 mm - 819 W/m² -
1787781806 16.11° C 14% 1014 hPa 0 mm - 819 W/m² -
1787781746 16.11° C 14% 1014 hPa 0 mm - 821 W/m² -
1787781686 16.11° C 14% 1014.1 hPa 0 mm - 824 W/m² -
1787781626 16.11° C 14% 1014 hPa 0 mm - 826 W/m² -
1787781566 16.11° C 14% 1014.1 hPa 0 mm - 828 W/m² -
1787781506 16.11° C 15% 1014.1 hPa 0 mm - 828 W/m² -
1787781446 16.11° C 13% 1014.1 hPa 0 mm - 831 W/m² -
1787781386 16.11° C 7% 1014.2 hPa 0 mm - 833 W/m² -
1787781326 16.11° C 1% 1014.1 hPa 0 mm - 837 W/m² -

* Rain latest hour (hover to see other rain measurements)
** Current wind speed in m/s (hover to see current wind gust speed)